ラ・サグラ彗星

233P/La Sagra (2015)

English version
Home page
Updated on May 16, 2015

---------------------------------------------------------------------

・ プロフィール

・ 軌道要素

Epoch 2015 June 27.0 TT = JDT 2457200.5
T 2015 June 25.44055 TT                                 MPCW
q   1.7865324            (2000.0)            P               Q
n   0.18669016     Peri.   27.24823     -0.20305993     -0.96077488
a   3.0319482      Node    74.96786     +0.85898387     -0.26738825
e   0.4107642      Incl.   11.27859     +0.47001422     +0.07358780
P   5.28
From 54 observations 2005 Feb. 9-2010 Feb. 18, mean residual 0".6.

・ 光度変化

        m1 = 16.5 + 5 logΔ + 10.0 log r

---------------------------------------------------------------------

軌道要素はM.P.E.C. 2015-E14に掲載されたものです。
光度グラフはComet for Windowsで作成したものです。

---------------------------------------------------------------------

Copyright(C) Seiichi Yoshida (comet@aerith.net). All rights reserved.